Voltar ao catálogo

SHIYAN 26B

AtivoCiênciaSSO
NORAD 61908·PAYLOAD·🇨🇳 China
Este nome de satélite ainda não foi confirmado por fontes oficiais.

Lançado Nov 11, 2024 de Jiuquan Satellite Launch Center

Loading…

Próximas Passagens (próximas 24 horas)

TLE

AtualizadoSource: Space-Track

Época: Sep 14, 2026, 12:52 UTC

1 61908U 24205Q   26257.53657126  .00004449  00000-0  22070-3 0  9999
2 61908  97.4052 328.1472 0013369 105.5068 254.7643 15.18150238101880

Acompanhe SHIYAN 26B em tempo real com AllMySat

Download on the App Store